Regional Weather Roundup
Issued by NWS

Home | Current Version | Previous Version | Graphics & Text | Print | Product List | Glossary On
Versions: 1 2 3 4 5 6 7 8 9 10 11 12 13 14 15 16 17 18 19 20 21 22 23 24 25 26 27 28 29 30 31 32 33 34 35 36 37 38 39 40 41 42 43 44 45 46 47 48 49 50
000
ASUS43 KBIS 261620
RWRND

NORTH DAKOTA REGIONAL WEATHER ROUNDUP
NATIONAL WEATHER SERVICE BISMARCK ND
1000 AM CST THU FEB 26 2015

NOTE: "FAIR" INDICATES FEW OR NO CLOUDS BELOW 12,000 FEET WITH NO
SIGNIFICANT WEATHER AND/OR OBSTRUCTIONS TO VISIBILITY.


NDZ001>003-009>011-017-261700-
NORTHWEST NORTH DAKOTA

CITY           SKY/WX    TMP DP  RH WIND       PRES   REMARKS
WILLISTON      SUNNY     -7 -14  71 E3        30.60R
MINOT          SUNNY     -8 -17  64 W13       30.55S WCI -28
MINOT AFB      SUNNY    -10 -17  71 NW14      30.56R WCI -32
$$

NDZ018>021-031>035-040>046-261700-
SOUTHWEST NORTH DAKOTA

CITY           SKY/WX    TMP DP  RH WIND       PRES   REMARKS
BISMARCK       SUNNY     -3 -13  62 NW8       30.58R WCI -18
DICKINSON      SUNNY     -4 -11  72 NW12      30.47R WCI -22
GARRISON         N/A     -9 -16  71 NW13      30.55R WCI -29
HETTINGER ARPT SUNNY     -3  -9  75 NW10      30.48R WCI -20
$$

NDZ004>008-012>016-024-026-027-054-261700-
NORTHEAST NORTH DAKOTA

CITY           SKY/WX    TMP DP  RH WIND       PRES   REMARKS
GRAND FORKS    SUNNY     -3 -12  65 NW9       30.57S WCI -19
GRND FRKS AFB  SUNNY     -3 -13  61 N12       30.56S WCI -20
DEVILS LAKE    SUNNY    N/A N/A N/A MISG        N/A
$$

NDZ022-023-025-028>030-036>039-047>053-261700-
SOUTHEAST NORTH DAKOTA

CITY           SKY/WX    TMP DP  RH WIND       PRES   REMARKS
FARGO          SUNNY     -3 -12  65 N15       30.57R WCI -23
JAMESTOWN      SUNNY     -7 -15  68 NW13      30.53R WCI -27
$$




USA.gov is the U.S. government's official web portal to all federal, state and local government web resources and services.